When you browse on this site, cookies collect data to enhance your experience and personalize the content and advertising you see.
Visit our Privacy Policy to learn more. By continuing to use the site, you agree to this use of cookies and data.
  • In Romania
  • List of Countries
  • For 7 days
  • Water Temperature
  • Satellite Maps
  • Weather Map
  • Weather Widgets
  • user-avatar
    Login

    Hourly Weather Huancavelica

    Today, 16 July, Tuesday

    Time Temperature Precipitation Wind Pressure Humidity
    00:00 +5°C° 0 mm 1 mps 463 mmHg 94%
    01:00 +5°C° 0 mm 1 mps 464 mmHg 93%
    02:00 +5°C° 0 mm 1 mps 464 mmHg 91%
    03:00 +5°C° 0 mm 1 mps 464 mmHg 88%
    04:00 +5°C° 0 mm 1 mps 464 mmHg 86%
    05:00 +5°C° 0 mm 1 mps 464 mmHg 84%
    06:00 +5°C° 0 mm 1 mps 464 mmHg 81%
    07:00 +4°C° 0 mm 2 mps 464 mmHg 80%
    08:00 +5°C° 0 mm 2 mps 465 mmHg 74%
    09:00 +6°C° 0 mm 2 mps 466 mmHg 67%
    10:00 +7°C° 0 mm 2 mps 467 mmHg 61%
    11:00 +8°C° 0 mm 2 mps 467 mmHg 58%
    12:00 +9°C° 0 mm 3 mps 467 mmHg 54%
    13:00 +10°C° 0 mm 3 mps 467 mmHg 50%
    14:00 +10°C° 0.2 mm 3 mps 467 mmHg 52%
    15:00 +9°C° 0.2 mm 3 mps 466 mmHg 53%
    16:00 +9°C° 0.2 mm 3 mps 466 mmHg 55%
    17:00 +8°C° 0.2 mm 2 mps 465 mmHg 68%
    18:00 +6°C° 0.2 mm 2 mps 464 mmHg 81%
    19:00 +4°C° 0.2 mm 2 mps 463 mmHg 94%
    20:00 +4°C° 0.1 mm 2 mps 464 mmHg 94%
    21:00 +4°C° 0.1 mm 2 mps 464 mmHg 94%
    22:00 +5°C° 0.1 mm 1 mps 464 mmHg 94%
    23:00 +5°C° 0.1 mm 1 mps 464 mmHg 93%

    Tomorrow, 17 July, Wednesday

    Time Temperature Precipitation Wind Pressure Humidity
    00:00 +4°C° 0.1 mm 2 mps 464 mmHg 93%
    01:00 +4°C° 0.1 mm 2 mps 464 mmHg 92%
    02:00 +4°C° 0.1 mm 2 mps 464 mmHg 92%
    03:00 +4°C° 0.1 mm 1 mps 463 mmHg 93%
    04:00 +4°C° 0.1 mm 1 mps 463 mmHg 93%
    05:00 +4°C° 0 mm 1 mps 463 mmHg 92%
    06:00 +4°C° 0 mm 1 mps 464 mmHg 91%
    07:00 +4°C° 0 mm 1 mps 464 mmHg 90%
    08:00 +5°C° 0.1 mm 1 mps 465 mmHg 83%
    09:00 +5°C° 0.1 mm 2 mps 466 mmHg 76%
    10:00 +6°C° 0.1 mm 2 mps 466 mmHg 69%
    11:00 +7°C° 0.3 mm 2 mps 467 mmHg 65%
    12:00 +9°C° 0.3 mm 3 mps 467 mmHg 61%
    13:00 +10°C° 0.3 mm 3 mps 468 mmHg 57%
    14:00 +9°C° 0.6 mm 3 mps 467 mmHg 61%
    15:00 +9°C° 0.6 mm 3 mps 467 mmHg 66%
    16:00 +8°C° 0.6 mm 3 mps 466 mmHg 70%
    17:00 +7°C° 0.5 mm 2 mps 465 mmHg 77%
    18:00 +6°C° 0.5 mm 2 mps 465 mmHg 84%
    19:00 +5°C° 0.5 mm 2 mps 464 mmHg 91%
    20:00 +6°C° 0.6 mm 1 mps 465 mmHg 92%
    21:00 +5°C° 0.6 mm 1 mps 465 mmHg 93%
    22:00 +5°C° 0.6 mm 1 mps 465 mmHg 95%
    23:00 +5°C° 0.6 mm 1 mps 465 mmHg 95%

    Day after tomorrow, 18 July, Thursday

    Time Temperature Precipitation Wind Pressure Humidity
    00:00 +5°C° 0.6 mm 1 mps 464 mmHg 95%
    01:00 +4°C° 0.6 mm 1 mps 464 mmHg 95%
    02:00 +4°C° 0.4 mm 1 mps 464 mmHg 94%
    03:00 +4°C° 0.4 mm 1 mps 464 mmHg 94%
    04:00 +3°C° 0.4 mm 0 mps 463 mmHg 94%
    05:00 +3°C° 0.1 mm 0 mps 463 mmHg 93%
    06:00 +3°C° 0.1 mm 0 mps 463 mmHg 93%
    07:00 +4°C° 0.1 mm 1 mps 464 mmHg 92%
    08:00 +5°C° 0 mm 1 mps 464 mmHg 86%
    09:00 +6°C° 0 mm 1 mps 465 mmHg 81%
    10:00 +6°C° 0 mm 2 mps 466 mmHg 76%
    11:00 +7°C° 0.1 mm 2 mps 466 mmHg 72%
    12:00 +8°C° 0.1 mm 1 mps 466 mmHg 68%
    13:00 +9°C° 0.1 mm 1 mps 466 mmHg 64%
    14:00 +9°C° 0.3 mm 1 mps 466 mmHg 64%
    15:00 +9°C° 0.3 mm 1 mps 466 mmHg 64%
    16:00 +9°C° 0.3 mm 1 mps 465 mmHg 63%
    17:00 +8°C° 0.2 mm 1 mps 465 mmHg 72%
    18:00 +7°C° 0.2 mm 1 mps 464 mmHg 80%
    19:00 +5°C° 0.2 mm 1 mps 463 mmHg 88%
    20:00 +5°C° 0.1 mm 1 mps 463 mmHg 91%
    21:00 +4°C° 0.1 mm 1 mps 463 mmHg 94%
    22:00 +4°C° 0.1 mm 1 mps 463 mmHg 97%
    23:00 +4°C° 0 mm 1 mps 463 mmHg 96%

    19 July, Friday

    Time Temperature Precipitation Wind Pressure Humidity
    00:00 +4°C° 0 mm 1 mps 463 mmHg 95%
    01:00 +5°C° 0 mm 1 mps 464 mmHg 94%
    02:00 +5°C° 0 mm 1 mps 463 mmHg 92%
    03:00 +5°C° 0 mm 1 mps 463 mmHg 90%
    04:00 +5°C° 0 mm 1 mps 463 mmHg 88%
    05:00 +5°C° 0 mm 1 mps 463 mmHg 88%
    06:00 +5°C° 0 mm 1 mps 464 mmHg 88%
    07:00 +5°C° 0 mm 1 mps 464 mmHg 88%
    08:00 +5°C° 0 mm 2 mps 465 mmHg 82%
    09:00 +6°C° 0 mm 2 mps 465 mmHg 76%
    10:00 +7°C° 0 mm 2 mps 466 mmHg 71%
    11:00 +8°C° 0.1 mm 2 mps 466 mmHg 66%
    12:00 +9°C° 0.1 mm 2 mps 466 mmHg 61%
    13:00 +9°C° 0.1 mm 2 mps 467 mmHg 56%
    14:00 +9°C° 0.4 mm 2 mps 466 mmHg 58%
    15:00 +9°C° 0.4 mm 2 mps 466 mmHg 60%
    16:00 +9°C° 0.4 mm 2 mps 466 mmHg 61%
    17:00 +7°C° 0.5 mm 2 mps 465 mmHg 72%
    18:00 +6°C° 0.5 mm 2 mps 464 mmHg 83%
    19:00 +5°C° 0.5 mm 1 mps 463 mmHg 93%
    20:00 +5°C° 0.1 mm 1 mps 463 mmHg 94%
    21:00 +4°C° 0.1 mm 1 mps 463 mmHg 95%
    22:00 +4°C° 0.1 mm 1 mps 463 mmHg 96%
    23:00 +4°C° 0 mm 1 mps 463 mmHg 94%

    20 July, Saturday

    Time Temperature Precipitation Wind Pressure Humidity
    00:00 +5°C° 0 mm 1 mps 464 mmHg 91%
    01:00 +5°C° 0 mm 1 mps 464 mmHg 89%
    02:00 +5°C° 0 mm 1 mps 463 mmHg 88%
    03:00 +5°C° 0 mm 1 mps 463 mmHg 88%
    04:00 +5°C° 0 mm 1 mps 463 mmHg 87%
    05:00 +5°C° 0 mm 1 mps 463 mmHg 85%
    06:00 +5°C° 0 mm 1 mps 463 mmHg 84%
    07:00 +5°C° 0 mm 1 mps 464 mmHg 83%
    08:00 +6°C° 0 mm 1 mps 464 mmHg 75%
    09:00 +6°C° 0 mm 2 mps 465 mmHg 68%
    10:00 +7°C° 0 mm 2 mps 466 mmHg 61%
    11:00 +8°C° 0 mm 2 mps 466 mmHg 59%
    12:00 +8°C° 0 mm 2 mps 466 mmHg 57%
    13:00 +9°C° 0 mm 2 mps 466 mmHg 55%
    14:00 +9°C° 0.1 mm 2 mps 466 mmHg 54%
    15:00 +9°C° 0.1 mm 2 mps 466 mmHg 53%
    16:00 +10°C° 0.1 mm 2 mps 466 mmHg 51%
    17:00 +9°C° 0.2 mm 1 mps 465 mmHg 63%
    18:00 +7°C° 0.2 mm 1 mps 464 mmHg 75%
    19:00 +5°C° 0.2 mm 1 mps 463 mmHg 87%
    20:00 +5°C° 0.1 mm 1 mps 463 mmHg 89%
    21:00 +3°C° 0.1 mm 0 mps 463 mmHg 91%
    22:00 +3°C° 0.1 mm 0 mps 463 mmHg 92%
    23:00 +3°C° 0 mm 0 mps 462 mmHg 92%

    21 July, Sunday

    Time Temperature Precipitation Wind Pressure Humidity
    00:00 +3°C° 0 mm 0 mps 462 mmHg 92%
    01:00 +2°C° 0 mm 0 mps 462 mmHg 93%
    02:00 +2°C° 0 mm 0 mps 462 mmHg 91%
    03:00 +2°C° 0 mm 0 mps 461 mmHg 89%
    04:00 +2°C° 0 mm 0 mps 461 mmHg 87%
    05:00 +2°C° 0 mm 0 mps 462 mmHg 87%
    06:00 +2°C° 0 mm 0 mps 462 mmHg 87%
    07:00 +4°C° 0 mm 1 mps 462 mmHg 87%
    08:00 +5°C° 0 mm 1 mps 464 mmHg 77%
    09:00 +6°C° 0 mm 2 mps 465 mmHg 68%
    10:00 +8°C° 0 mm 2 mps 466 mmHg 58%
    11:00 +9°C° 0 mm 2 mps 467 mmHg 55%
    12:00 +10°C° 0 mm 2 mps 467 mmHg 51%
    13:00 +10°C° 0 mm 2 mps 467 mmHg 47%
    14:00 +10°C° 0.1 mm 2 mps 466 mmHg 48%
    15:00 +10°C° 0.1 mm 2 mps 466 mmHg 49%
    16:00 +10°C° 0.1 mm 2 mps 466 mmHg 49%
    17:00 +9°C° 0.2 mm 1 mps 465 mmHg 60%
    18:00 +8°C° 0.2 mm 1 mps 464 mmHg 71%
    19:00 +6°C° 0.2 mm 1 mps 463 mmHg 82%
    20:00 +6°C° 0.1 mm 1 mps 463 mmHg 85%
    21:00 +5°C° 0.1 mm 1 mps 464 mmHg 88%
    22:00 +4°C° 0.1 mm 0 mps 464 mmHg 91%
    23:00 +4°C° 0 mm 0 mps 463 mmHg 92%
    Show more